Wind_Speed
25 24 24 24 23 24 24 25 24 25 23 23 22 23 23 25 26 21 9 21 10 5 8 5 9 13 10 5 7 4 2 5 2 9 10 13 12 10 9 18 8 10 8 22 30
25 25 25 25 25 25 25 25 25 25 24 24 23 23 22 22 22 17 28 26 23 15 9 11 5 6 3 6 3 6 4 7 5 15 14 20 23 16 10 13 12 16 19 26 25
27 28 29 28 27 27 27 27 26 26 26 25 23 21 20 16 6 8 9 9 16 23 13 12 13 3 4 5 6 6 9 12 7 11 16 18 19 11 20 10 23 26 24 21 23
30 31 31 31 30 29 28 28 27 28 27 25 22 19 16 3 6 2 4 14 2 19 15 5 4 2 3 2 5 4 12 12 13 9 8 14 17 14 10 10 21 26 25 23 17
32 33 32 31 31 31 31 31 29 30 28 24 20 16 4 2 12 22 18 20 5 16 16 7 4 4 5 4 4 3 5 13 16 13 10 11 19 16 12 20 21 22 21 18 16
34 34 35 33 33 34 35 34 32 33 26 21 18 9 2 8 17 18 15 16 12 16 10 9 5 7 6 4 2 6 5 18 15 10 13 15 17 9 16 22 22 22 20 19 19
36 37 38 37 37 38 37 36 38 32 23 19 13 3 4 19 6 6 5 23 20 18 5 12 20 1 5 10 4 4 5 5 11 9 8 19 6 15 24 23 25 23 21 21 21
38 40 40 40 40 42 39 42 36 28 21 13 6 5 9 14 19 26 17 26 22 20 17 12 17 4 4 6 7 4 2 3 4 10 9 9 5 18 24 23 22 22 20 20 21
40 41 42 42 42 43 45 37 33 13 3 3 6 5 11 9 9 27 25 15 25 25 20 15 5 6 4 2 5 5 1 5 4 5 8 5 7 19 22 21 20 18 19 19 18
40 42 44 45 44 43 41 30 9 6 6 3 3 2 9 6 6 10 20 24 5 9 2 6 2 2 3 4 5 1 1 6 10 9 10 8 6 21 24 23 20 18 17 18 18
40 42 44 46 44 44 26 9 5 3 1 8 6 6 10 4 9 8 18 12 5 6 8 4 4 7 12 10 6 2 6 7 6 8 5 12 10 22 19 17 18 16 17 21 19
40 42 44 47 45 18 16 4 3 12 11 12 20 23 35 8 7 8 16 8 7 8 6 2 10 12 6 3 4 6 7 11 5 7 5 7 12 20 21 22 21 20 16 14 21
40 41 44 47 38 2 27 8 28 32 4 8 15 11 10 12 11 13 9 9 6 8 9 12 6 8 7 6 5 7 9 9 7 2 4 5 3 8 16 15 17 18 19 15 17
41 41 43 48 8 29 17 27 28 23 4 8 7 9 7 10 8 25 9 11 5 12 6 7 12 12 16 11 8 8 11 11 11 5 7 9 5 9 12 18 17 18 18 18 17
41 43 42 39 23 9 15 29 32 3 4 4 5 3 7 19 5 11 16 5 15 7 8 9 14 14 11 21 10 13 8 9 11 13 6 5 2 7 9 12 17 21 20 21 21
44 44 42 27 11 27 17 31 7 4 7 6 8 7 8 6 4 7 11 5 11 10 4 12 6 12 17 9 15 18 3 1 4 2 6 11 12 16 11 26 21 21 22 23 22
48 46 40 21 7 13 20 6 4 4 7 7 4 4 8 8 17 6 16 17 10 11 12 2 17 8 6 10 11 8 6 3 2 1 7 16 6 13 18 24 26 26 26 25 23
49 48 37 27 26 14 7 4 4 6 9 7 9 8 7 7 14 7 7 16 7 8 5 7 9 11 7 13 10 8 10 6 6 4 6 5 7 12 14 20 27 28 27 24 23
48 37 25 22 13 14 3 3 8 6 7 14 15 4 3 5 4 12 8 7 15 10 11 8 8 5 11 7 13 8 4 9 6 3 2 5 8 9 8 13 21 25 21 23 23
36 18 15 20 25 13 3 5 6 2 12 8 3 8 7 12 9 13 10 11 11 19 7 6 3 9 12 5 7 12 7 2 3 7 5 5 4 6 5 9 23 22 25 23 23
15 6 7 38 9 4 4 6 5 16 11 8 10 8 7 8 5 6 9 11 21 15 19 11 4 7 3 7 11 0 3 3 5 6 6 3 7 8 12 9 19 22 26 24 22
10 4 21 33 4 1 4 6 6 20 13 8 6 11 12 10 8 7 4 3 8 23 20 12 7 10 11 9 4 8 11 8 7 6 2 6 12 6 1 3 14 21 22 21 23
4 4 13 17 4 5 9 7 7 15 14 6 8 9 13 12 5 4 4 7 14 6 16 15 6 3 5 5 1 6 7 7 5 5 8 5 11 3 6 3 4 14 14 17 20
3 4 4 4 2 5 7 6 11 15 14 10 13 17 17 13 10 7 6 3 10 8 14 7 8 19 14 7 5 5 8 7 8 5 5 7 6 4 9 10 9 9 12 15 18
1 3 3 4 7 11 12 6 12 11 8 9 6 10 9 6 4 4 5 7 5 12 9 3 17 15 20 11 8 5 9 12 8 9 10 10 11 7 10 10 7 9 8 10 14
2 2 4 5 6 8 7 3 12 14 10 11 10 8 12 5 2 4 6 3 3 9 8 8 3 8 19 19 11 11 8 11 16 10 5 9 10 9 9 9 3 6 9 9 16
2 4 3 5 4 4 4 8 15 18 10 13 15 5 8 11 8 7 8 7 7 2 5 6 4 2 15 7 8 7 11 10 8 7 12 7 11 6 6 6 3 3 8 8 12
Wind_Direction
3 359 355 350 344 341 338 336 335 336 333 328 327 327 328 323 316 308 254 255 253 252 207 179 214 226 208 234 204 150 300 301 24 118 135 137 128 152 102 135 153 180 141 155 163
0 357 352 349 343 339 335 333 332 333 331 327 324 324 327 325 320 278 284 276 259 232 209 210 230 192 191 215 224 148 170 237 216 136 134 151 139 132 136 144 111 112 136 152 160
358 356 353 349 342 338 335 333 329 327 325 323 321 322 326 328 313 250 331 306 225 224 230 230 273 339 239 215 214 233 229 224 170 140 144 143 138 132 125 146 150 146 156 160 167
357 354 351 348 344 338 333 328 324 322 322 319 317 317 323 331 278 259 7 2 210 204 209 238 281 236 258 274 213 252 274 131 146 152 140 147 130 147 151 160 156 150 157 161 174
355 352 348 345 341 337 333 326 322 320 317 314 314 319 325 229 246 250 269 306 255 192 204 191 234 198 249 264 332 244 166 136 148 158 143 134 159 154 126 141 147 147 158 167 166
354 351 347 343 340 335 332 326 320 318 313 308 307 313 201 245 266 281 263 253 213 194 215 187 217 208 281 294 83 337 251 146 154 156 128 116 126 109 149 145 150 158 163 170 174
353 350 346 342 339 334 329 322 318 314 306 297 292 242 233 233 252 61 262 241 229 211 205 219 231 144 355 331 130 308 274 123 154 140 120 111 100 145 155 158 160 170 174 178 183
352 350 346 341 337 334 329 321 316 310 298 281 251 176 244 264 270 261 258 249 249 245 225 245 224 256 188 276 352 152 215 142 219 136 173 95 183 159 161 164 171 173 178 182 188
350 348 345 341 337 334 328 321 316 304 271 188 144 179 271 282 224 244 231 213 233 238 231 231 187 204 310 347 3 11 159 189 98 206 137 100 131 168 170 172 175 183 185 189 193
348 346 343 340 336 336 328 330 9 120 108 101 257 340 264 242 233 228 209 214 175 199 208 192 173 206 38 96 222 50 144 169 151 165 163 155 172 167 175 174 182 189 193 197 198
346 344 342 339 334 336 339 354 9 16 192 227 201 252 297 13 308 236 189 185 166 146 173 208 156 205 215 204 106 344 320 152 221 179 127 170 161 173 180 180 184 186 188 201 201
346 344 341 338 333 342 357 340 265 316 292 248 248 238 256 277 313 296 199 161 146 195 165 90 214 224 234 195 160 217 242 271 327 175 118 170 181 175 182 190 191 190 197 185 195
346 345 342 338 335 38 334 283 335 350 281 273 224 234 220 176 219 260 171 175 153 176 189 199 231 200 209 244 208 225 208 236 231 215 98 88 42 192 208 196 197 204 195 198 178
343 342 342 339 344 333 304 336 337 352 322 270 216 248 185 151 237 223 208 176 202 194 198 210 238 202 217 230 191 237 216 221 233 183 194 157 239 214 205 204 204 206 199 198 199
341 338 337 335 294 303 307 331 334 54 319 200 191 157 164 168 171 197 188 179 186 189 157 218 194 211 211 221 198 238 221 206 233 211 157 196 109 253 164 218 205 209 205 200 203
339 333 332 330 285 290 319 325 332 51 250 294 151 154 132 197 222 150 168 170 175 203 222 215 228 200 217 224 215 241 291 40 320 152 193 207 194 238 182 214 207 207 207 204 205
336 329 322 297 243 300 314 346 70 190 312 315 339 355 171 175 204 176 173 190 169 177 217 222 233 229 155 206 244 218 86 297 329 72 216 219 176 229 209 211 199 203 205 203 203
334 328 318 293 286 285 325 62 201 226 270 7 352 305 210 127 217 196 155 188 205 142 173 172 241 210 195 201 202 201 167 163 182 197 242 129 216 244 211 210 202 203 202 200 199
336 328 316 326 322 229 89 149 206 222 22 353 332 324 287 204 169 197 210 209 203 172 173 161 239 252 208 199 176 227 141 194 164 185 33 263 297 310 163 201 194 200 197 201 200
331 309 304 352 333 167 90 231 245 38 357 347 314 5 346 345 342 193 193 213 206 195 146 215 214 245 261 184 221 195 180 176 357 206 229 274 276 239 302 177 187 191 197 200 200
331 328 293 343 358 91 188 223 305 295 345 346 319 303 328 293 304 317 226 221 192 195 189 189 113 278 150 204 213 41 201 93 127 144 173 240 271 216 260 204 172 190 194 196 198
341 323 317 338 20 8 233 205 261 283 294 280 274 276 262 268 291 299 273 222 294 184 195 195 174 231 231 249 211 190 196 167 200 255 224 175 256 262 164 160 188 190 195 199 195
310 260 321 352 46 343 328 316 307 301 294 274 256 276 283 295 290 270 319 5 8 34 196 188 194 192 299 307 292 190 218 150 129 112 199 155 251 245 207 32 207 184 204 198 202
341 324 333 24 340 13 340 307 332 319 298 281 263 268 262 268 248 269 342 333 326 24 335 205 184 208 221 210 171 212 194 176 148 149 183 210 250 270 299 288 271 255 171 196 197
241 275 351 331 333 340 320 273 330 340 338 318 352 7 252 219 322 34 353 323 332 0 352 131 206 192 218 200 172 218 223 199 175 194 188 224 244 192 227 237 235 247 186 173 173
254 349 354 288 287 327 315 305 333 330 334 328 355 330 40 91 65 310 354 10 299 333 351 342 293 175 210 216 192 225 215 236 216 196 193 187 243 155 231 283 317 155 172 189 162
292 316 105 272 301 340 316 330 331 330 315 324 334 344 20 340 295 234 216 232 237 279 315 5 28 72 212 198 178 230 212 204 214 212 197 175 223 185 180 170 207 183 201 252 192
Height
821 818 814 811 807 804 801 798 795 792 789 785 782 779 776 771 767 764 758 749 750 753 755 755 757 759 766 765 763 760 792 795 776 776 780 768 777 776 773 781 784 787 792 799 807
822 818 814 810 806 803 799 796 793 790 787 784 781 778 775 770 764 757 743 742 744 748 751 752 753 756 766 762 759 770 793 779 754 759 767 765 765 774 782 788 793 794 798 803 808
822 818 814 809 804 801 797 793 790 787 784 782 779 776 773 770 766 745 738 737 738 745 749 750 750 753 762 755 756 759 772 748 747 749 750 763 767 767 782 799 786 792 797 803 808
821 816 812 808 803 799 794 790 787 783 781 778 776 774 772 771 781 738 737 737 736 743 748 749 750 757 761 764 746 762 738 735 745 744 749 760 762 776 770 781 779 782 789 798 805
820 815 810 805 800 796 792 787 783 779 776 774 772 771 771 772 753 738 736 738 739 741 744 748 752 755 763 751 748 747 741 736 736 740 745 748 762 770 778 777 783 788 793 797 802
818 813 808 802 797 791 787 782 778 774 771 769 769 769 770 773 735 733 734 736 738 739 739 745 746 743 752 752 756 741 736 737 738 741 744 758 768 766 783 778 785 788 792 796 799
817 811 805 800 794 788 782 776 771 768 765 764 764 766 766 742 733 731 731 732 735 734 737 739 740 745 747 752 741 744 751 745 744 747 756 754 784 781 775 779 784 788 790 792 795
815 809 802 796 790 783 776 769 763 760 758 758 760 763 755 727 728 727 729 732 733 736 734 734 737 743 748 739 748 761 755 779 748 747 753 755 799 778 773 780 786 785 787 790 793
813 806 799 793 785 778 769 761 756 752 753 755 759 761 748 723 719 714 722 726 727 731 733 732 737 745 745 761 778 775 787 773 765 742 752 762 792 777 774 779 784 786 786 786 789
812 805 797 789 782 774 763 756 751 751 754 756 758 763 729 718 712 709 713 720 726 728 734 737 744 755 764 777 805 782 772 767 769 755 750 768 778 770 770 774 779 781 785 785 786
811 804 795 786 778 773 761 754 757 757 754 751 745 733 715 713 710 706 709 716 721 730 753 741 763 774 762 757 760 758 770 764 754 741 757 769 774 769 768 770 772 773 778 780 781
810 803 794 784 776 770 768 767 768 769 754 731 726 723 714 720 727 708 707 723 729 748 742 753 767 746 742 748 757 766 775 773 752 740 756 771 772 762 762 761 762 763 767 771 775
809 802 794 783 773 770 769 765 763 758 758 724 709 708 706 712 722 712 707 712 727 743 744 753 745 736 742 750 761 766 777 770 767 750 753 773 784 777 763 760 760 758 755 761 766
807 801 795 784 775 772 765 763 758 756 773 732 710 691 693 699 712 694 696 707 721 738 739 745 730 738 744 752 755 780 745 749 758 771 789 760 819 784 769 764 761 758 756 756 758
805 799 794 793 785 778 767 762 758 757 784 692 691 672 679 691 687 687 685 700 721 726 733 743 735 741 749 740 742 753 733 747 749 763 768 773 796 775 765 771 761 752 749 747 748
802 795 790 785 783 769 767 762 759 780 777 701 678 689 696 690 687 680 689 689 696 721 720 728 712 723 727 723 727 718 736 746 746 766 795 766 775 758 768 748 744 740 739 739 740
798 789 785 781 774 770 768 764 785 787 715 703 698 693 692 696 693 689 697 708 723 744 745 730 725 714 712 737 725 733 766 803 804 809 810 754 785 750 727 712 721 725 724 726 730
790 782 770 768 765 769 770 776 786 743 727 704 711 697 700 689 694 693 701 711 707 717 742 757 759 720 706 720 738 743 760 801 814 817 793 761 783 743 707 696 699 703 707 715 723
790 773 767 763 763 768 776 787 766 743 731 730 715 705 701 686 692 697 705 707 698 704 733 754 748 703 699 704 715 734 759 741 773 776 793 772 740 710 697 701 699 704 710 713 715
793 778 769 763 764 766 781 773 757 734 735 734 743 726 734 721 718 700 704 685 693 687 696 718 746 712 700 699 702 714 720 760 781 797 801 780 759 754 716 705 698 703 706 705 705
797 790 767 763 756 765 778 770 749 729 742 745 744 746 737 736 716 712 695 679 673 684 685 705 727 724 702 716 721 730 737 741 754 774 796 800 772 719 703 698 694 695 690 695 699
805 806 769 765 771 772 768 754 743 735 739 743 734 735 738 730 725 714 696 681 665 662 693 693 723 736 724 697 690 704 721 733 756 774 770 772 746 693 682 682 682 681 685 685 685
810 800 775 770 791 789 772 757 744 741 740 736 731 722 719 729 733 703 688 675 673 673 679 681 723 746 731 712 696 710 710 719 738 752 764 776 741 688 684 678 679 683 683 682 683
813 808 789 785 791 793 790 772 760 744 736 725 722 716 717 721 716 710 703 682 682 684 677 678 697 702 719 716 706 710 704 706 722 759 755 754 727 708 696 691 680 675 681 681 679
813 809 802 803 792 792 792 777 766 756 739 728 722 721 714 722 720 719 713 704 688 689 684 682 690 688 685 690 695 696 695 699 718 719 734 726 724 712 696 689 675 672 673 677 678
815 807 807 806 793 792 791 781 771 758 757 741 739 726 722 731 728 731 725 719 714 701 701 695 691 683 689 679 690 696 690 691 691 699 710 706 710 688 681 678 664 668 670 674 671
809 807 809 805 794 798 792 786 774 762 748 742 736 730 726 727 718 716 715 714 715 716 713 709 709 707 697 684 693 712 693 689 687 686 691 718 698 674 682 676 669 664 669 673 668